timestamp,surface_pressure_avg,surface_temp_avg,battery_voltage,lat,long
2021-10-30 00:09:00+00:00,252.5614,9.48,12.65,47.84626,-54.09684
2021-10-30 00:19:01+00:00,248.3997,9.47,12.57,47.84626,-54.09684
2021-10-30 00:29:01+00:00,247.9581,9.4,12.57,47.84626,-54.09684
2021-10-30 00:39:01+00:00,252.1264,9.4,12.57,47.84626,-54.09684
2021-10-30 00:49:01+00:00,250.4097,9.4,12.57,47.84626,-54.09684
2021-10-30 00:59:01+00:00,242.5431,9.3,12.57,47.84626,-54.09684
2021-10-30 01:09:01+00:00,243.5231,9.26,12.57,47.84626,-54.09684
2021-10-30 01:19:00+00:00,247.2581,9.29,12.57,47.84626,-54.09684
2021-10-30 01:29:00+00:00,244.328,9.29,12.57,47.84626,-54.09684
2021-10-30 01:39:00+00:00,239.7231,9.2,12.57,47.84626,-54.09684
2021-10-30 01:49:00+00:00,242.3765,9.2,12.57,47.84626,-54.09684
2021-10-30 01:59:00+00:00,243.9165,9.2,12.57,47.84626,-54.09684
2021-10-30 02:09:00+00:00,243.3248,9.2,12.57,47.84626,-54.09684
2021-10-30 02:19:00+00:00,244.9948,9.2,12.57,47.84626,-54.09684
2021-10-30 02:29:00+00:00,251.553,9.28,12.57,47.84626,-54.09684
2021-10-30 02:39:00+00:00,252.9481,9.3,12.57,47.84626,-54.09684
2021-10-30 02:49:00+00:00,255.063,9.3,12.57,47.84626,-54.09684
2021-10-30 02:59:00+00:00,260.9081,9.3,12.57,47.84626,-54.09684
2021-10-30 03:09:00+00:00,265.7614,9.24,12.57,47.84626,-54.09684
2021-10-30 03:19:00+00:00,263.4031,9.2,12.57,47.84626,-54.09684
2021-10-30 03:29:00+00:00,264.4781,9.2,12.57,47.84626,-54.09684
2021-10-30 03:39:00+00:00,267.7048,9.2,12.57,47.84626,-54.09684
2021-10-30 03:49:00+00:00,269.8415,9.3,12.57,47.84626,-54.09684
2021-10-30 03:59:00+00:00,268.7947,9.3,12.57,47.84626,-54.09684
2021-10-30 04:09:00+00:00,274.7197,9.2,12.57,47.84626,-54.09684
2021-10-30 04:19:00+00:00,282.5164,9.53,12.57,47.84626,-54.09684
2021-10-30 04:29:00+00:00,286.5064,9.6,12.57,47.84626,-54.09684
2021-10-30 04:39:00+00:00,286.9365,9.65,12.57,47.84626,-54.09684
2021-10-30 04:49:00+00:00,293.598,9.6,12.57,47.84626,-54.09684
2021-10-30 04:59:00+00:00,297.1729,9.32,12.57,47.84626,-54.09684
2021-10-30 05:09:00+00:00,297.1397,9.37,12.57,47.84626,-54.09684
2021-10-30 05:19:01+00:00,298.9697,9.49,12.57,47.84626,-54.09684
2021-10-30 05:29:01+00:00,305.8948,9.59,12.57,47.84626,-54.09684
2021-10-30 05:39:01+00:00,305.408,9.7,12.57,47.84626,-54.09684
2021-10-30 05:49:01+00:00,306.2863,9.6,12.57,47.84626,-54.09684
2021-10-30 05:59:01+00:00,312.0947,9.5,12.57,47.84626,-54.09684
2021-10-30 06:09:01+00:00,314.7162,9.59,12.57,47.84626,-54.09684
2021-10-30 06:19:00+00:00,310.7814,9.5,12.57,47.84626,-54.09684
2021-10-30 06:29:00+00:00,312.6497,9.41,12.57,47.84626,-54.09684
2021-10-30 06:39:00+00:00,317.4014,9.57,12.57,47.84626,-54.09684
2021-10-30 06:49:00+00:00,314.4046,9.5,12.57,47.84626,-54.09684
2021-10-30 06:59:00+00:00,309.9064,9.4,12.57,47.84626,-54.09684
2021-10-30 07:09:00+00:00,312.6481,9.4,12.57,47.84626,-54.09684
2021-10-30 07:19:00+00:00,312.5131,9.4,12.57,47.84626,-54.09684
2021-10-30 07:29:00+00:00,307.3931,9.39,12.57,47.84626,-54.09684
2021-10-30 07:39:00+00:00,304.8682,9.32,12.57,47.84626,-54.09684
2021-10-30 07:49:00+00:00,304.9847,9.3,12.57,47.84626,-54.09684
2021-10-30 07:59:00+00:00,298.8597,9.3,12.57,47.84626,-54.09684
2021-10-30 08:09:00+00:00,292.9047,9.3,12.57,47.84626,-54.09684
2021-10-30 08:19:00+00:00,293.1462,9.3,12.49,47.84626,-54.09684
2021-10-30 08:29:00+00:00,290.6114,9.78,12.49,47.84626,-54.09684
2021-10-30 08:39:00+00:00,285.0731,9.98,12.49,47.84626,-54.09684
2021-10-30 08:49:00+00:00,282.4363,9.96,12.49,47.84626,-54.09684
2021-10-30 08:59:00+00:00,283.4397,10.0,12.49,47.84626,-54.09684
2021-10-30 09:09:00+00:00,278.9313,10.0,12.49,47.84626,-54.09684
2021-10-30 09:19:00+00:00,274.0864,10.07,12.49,47.84626,-54.09684
2021-10-30 09:29:00+00:00,272.5531,9.78,12.49,47.84626,-54.09684
2021-10-30 09:39:00+00:00,270.2281,10.09,12.49,47.84626,-54.09684
2021-10-30 09:49:00+00:00,263.6697,10.16,12.49,47.84626,-54.09684
2021-10-30 09:59:00+00:00,259.7046,10.2,12.49,47.84626,-54.09684
2021-10-30 10:09:00+00:00,259.7581,10.2,12.49,47.84626,-54.09684
2021-10-30 10:19:01+00:00,255.5897,10.2,12.49,47.84626,-54.09684
2021-10-30 10:29:01+00:00,250.2565,9.89,12.49,47.84626,-54.09684
2021-10-30 10:39:01+00:00,248.1379,9.4,12.49,47.84626,-54.09684
2021-10-30 10:49:01+00:00,248.3364,9.5,12.49,47.84626,-54.09684
2021-10-30 10:59:01+00:00,246.3898,9.69,12.49,47.84626,-54.09684
2021-10-30 11:09:01+00:00,243.1281,9.88,12.49,47.84626,-54.09684
2021-10-30 11:19:00+00:00,241.8531,9.97,13.84,47.84626,-54.09684
2021-10-30 11:29:00+00:00,240.5981,9.9,13.84,47.84626,-54.09684
2021-10-30 11:39:00+00:00,238.9966,9.7,13.84,47.84626,-54.09684
2021-10-30 11:49:00+00:00,239.4965,9.5,13.84,47.84626,-54.09684
2021-10-30 11:59:00+00:00,241.5315,9.27,13.84,47.84626,-54.09684
2021-10-30 12:09:00+00:00,240.0265,9.1,13.84,47.84626,-54.09684
2021-10-30 12:19:00+00:00,238.9399,9.09,14.56,47.84626,-54.09684
2021-10-30 12:29:00+00:00,239.253,9.17,14.56,47.84626,-54.09684
2021-10-30 12:39:00+00:00,240.3698,9.2,14.56,47.84626,-54.09684
2021-10-30 12:49:00+00:00,240.2231,9.1,14.56,47.84626,-54.09684
2021-10-30 12:59:00+00:00,241.2931,9.1,14.56,47.84626,-54.09684
2021-10-30 13:09:00+00:00,242.5632,9.1,14.56,47.84626,-54.09684
2021-10-30 13:19:00+00:00,242.618,9.1,14.64,47.84626,-54.09684
2021-10-30 13:29:00+00:00,242.9147,9.0,14.64,47.84626,-54.09684
2021-10-30 13:39:00+00:00,242.4915,9.0,14.64,47.84626,-54.09684
2021-10-30 13:49:00+00:00,242.6829,9.0,14.64,47.84626,-54.09684
2021-10-30 13:59:00+00:00,243.3298,9.0,14.64,47.84626,-54.09684
2021-10-30 14:09:00+00:00,244.6197,9.0,14.64,47.84626,-54.09684
2021-10-30 14:19:00+00:00,246.7948,9.0,14.64,47.84626,-54.09684
2021-10-30 14:29:00+00:00,251.7514,9.0,14.64,47.84626,-54.09684
2021-10-30 14:39:00+00:00,252.4831,9.03,14.64,47.84626,-54.09684
2021-10-30 14:49:00+00:00,253.5,9.07,14.64,47.84626,-54.09684
2021-10-30 14:59:00+00:00,257.1964,9.1,14.64,47.84626,-54.09684
2021-10-30 15:09:00+00:00,264.2514,9.1,14.64,47.84626,-54.09684
2021-10-30 15:19:00+00:00,265.6614,9.1,14.56,47.84626,-54.09684
2021-10-30 15:29:00+00:00,266.3931,9.1,14.56,47.84626,-54.09684
2021-10-30 15:39:00+00:00,268.6147,9.1,14.56,47.84626,-54.09684
2021-10-30 15:49:00+00:00,272.7181,9.1,14.56,47.84626,-54.09684
2021-10-30 15:59:00+00:00,276.0647,9.28,14.56,47.84626,-54.09684
2021-10-30 16:09:00+00:00,281.8931,9.7,14.56,47.84626,-54.09684
2021-10-30 16:19:01+00:00,286.6414,9.6,14.48,47.84626,-54.09684
2021-10-30 16:29:01+00:00,288.9847,9.58,14.48,47.84626,-54.09684
2021-10-30 16:39:01+00:00,291.5198,9.6,14.48,47.84626,-54.09684
2021-10-30 16:49:01+00:00,296.9814,9.6,14.48,47.84626,-54.09684
2021-10-30 16:59:01+00:00,301.9063,9.64,14.48,47.84626,-54.09684
2021-10-30 17:09:01+00:00,306.3446,9.69,14.48,47.84626,-54.09684
2021-10-30 17:19:00+00:00,311.1031,9.7,14.32,47.84626,-54.09684
2021-10-30 17:29:00+00:00,313.8164,9.7,14.32,47.84626,-54.09684
2021-10-30 17:39:00+00:00,315.0945,9.7,14.32,47.84626,-54.09684
2021-10-30 17:49:00+00:00,318.1131,9.7,14.32,47.84626,-54.09684
2021-10-30 17:59:00+00:00,321.8547,9.7,14.32,47.84626,-54.09684
2021-10-30 18:09:00+00:00,322.5298,9.75,14.32,47.84626,-54.09684
2021-10-30 18:19:01+00:00,325.6512,9.76,14.24,47.84626,-54.09684
2021-10-30 18:29:01+00:00,328.3398,9.79,14.24,47.84626,-54.09684
2021-10-30 18:39:01+00:00,327.39799999999997,9.8,14.24,47.84626,-54.09684
2021-10-30 18:49:01+00:00,325.6563,9.8,14.24,47.84626,-54.09684
2021-10-30 18:59:01+00:00,325.33799999999997,9.8,14.24,47.84626,-54.09684
2021-10-30 19:09:01+00:00,325.8864,9.8,14.24,47.84626,-54.09684
2021-10-30 19:19:01+00:00,324.3364,9.8,13.92,47.84626,-54.09684
2021-10-30 19:29:01+00:00,325.6512,9.81,13.92,47.84626,-54.09684
2021-10-30 19:39:01+00:00,326.9549,9.85,13.92,47.84626,-54.09684
2021-10-30 19:49:01+00:00,324.6679,9.8,13.92,47.84626,-54.09684
2021-10-30 19:59:01+00:00,323.4915,9.8,13.92,47.84626,-54.09684
2021-10-30 20:09:01+00:00,324.533,9.8,13.92,47.84626,-54.09684
2021-10-30 20:19:01+00:00,324.5763,9.8,13.44,47.84626,-54.09684
2021-10-30 20:29:01+00:00,319.128,9.79,13.44,47.84626,-54.09684
2021-10-30 20:39:01+00:00,318.5998,9.8,13.44,47.84626,-54.09684
2021-10-30 20:49:01+00:00,319.2163,9.8,13.44,47.84626,-54.09684
2021-10-30 20:59:01+00:00,314.6963,9.79,13.44,47.84626,-54.09684
2021-10-30 21:09:01+00:00,310.0365,9.7,13.44,47.84626,-54.09684
2021-10-30 21:19:01+00:00,309.1097,9.82,13.05,47.84626,-54.09684
2021-10-30 21:29:01+00:00,306.1681,9.9,13.05,47.84626,-54.09684
2021-10-30 21:39:01+00:00,297.3047,9.9,13.05,47.84626,-54.09684
2021-10-30 21:49:01+00:00,291.7596,9.9,13.05,47.84626,-54.09684
2021-10-30 21:59:01+00:00,291.038,10.0,13.05,47.84626,-54.09684
2021-10-30 22:09:01+00:00,287.4397,10.0,13.05,47.84626,-54.09684
2021-10-30 22:19:00+00:00,279.7931,10.0,12.73,47.84626,-54.09684
2021-10-30 22:29:00+00:00,274.033,9.9,12.73,47.84626,-54.09684
2021-10-30 22:39:00+00:00,271.1615,9.9,12.73,47.84626,-54.09684
2021-10-30 22:49:00+00:00,269.5948,10.11,12.73,47.84626,-54.09684
2021-10-30 22:59:00+00:00,265.7231,10.19,12.73,47.84626,-54.09684
2021-10-30 23:09:00+00:00,259.4647,10.2,12.73,47.84626,-54.09684
2021-10-30 23:19:01+00:00,255.3964,10.2,12.73,47.84626,-54.09684
2021-10-30 23:29:01+00:00,252.9631,10.24,12.73,47.84626,-54.09684
2021-10-30 23:39:01+00:00,249.1748,10.26,12.73,47.84626,-54.09684
2021-10-30 23:49:01+00:00,244.4447,10.2,12.73,47.84626,-54.09684
2021-10-30 23:59:01+00:00,242.1296,10.2,12.73,47.84626,-54.09684
